Location: Township of South Roscoe
(37.9570°N, 100.1180°W)
Time: 03:57:57
(UTC+00:00)

PRISM - Pass Details

Date: 04 July 2022
Orbit: 554 x 578 km, 98.2° (Epoch: 14 August)

Event Time Altitude Azimuth Distance (km) Brightness Sun altitude
Rises 10:42:19 0° 33° (NNE) 2,740 ? -7.6°
Reaches altitude 10° 10:45:11 10° 55° (NE) 1,839 ? -7.1°
Maximum altitude 10:47:39 16° 94° (E) 1,493 ? -6.7°
Drops below altitude 10° 10:50:07 10° 133° (SE) 1,832 ? -6.3°
Sets 10:52:56 0° 155° (SSE) 2,723 ? -5.9°
